Location: *
(49.3500°N, 12.6000°E)
Time: 11:00:18
(UTC+00:00)

STARLINK-72 - Pass Details

Date: 18 October 2019
Orbit: 548 x 551 km, 53.0° (Epoch: 14 November)

Event Time Altitude Azimuth Distance (km) Brightness Sun altitude
Rises 17:37:41 0° 264° (W) 2,714 9.0 -14.3°
Reaches altitude 10° 17:39:57 10° 269° (W) 1,822 7.7 -14.7°
Maximum altitude 17:44:02 57° 348° (NNW) 650 4.0 -15.4°
Enters shadow 17:46:17 25° 59° (ENE) 1,145 4.8 -15.7°
